Year,Month,Day,Hour,Minute,Value (Times are PST for temperature in C)
2014,06,23,00,00,14.70
2014,06,23,00,01,14.70
2014,06,23,00,02,14.70
2014,06,23,00,03,14.60
2014,06,23,00,04,14.60
2014,06,23,00,05,14.60
2014,06,23,00,06,14.60
2014,06,23,00,07,14.60
2014,06,23,00,08,14.50
2014,06,23,00,09,14.50
2014,06,23,00,10,14.50
2014,06,23,00,11,14.50
2014,06,23,00,12,14.50
2014,06,23,00,13,14.40
2014,06,23,00,14,14.40
2014,06,23,00,15,14.40
2014,06,23,00,16,14.40
2014,06,23,00,17,14.40
2014,06,23,00,18,14.30
2014,06,23,00,19,14.30
2014,06,23,00,20,14.30
2014,06,23,00,21,14.30
2014,06,23,00,22,14.20
2014,06,23,00,23,14.20
2014,06,23,00,24,14.20
2014,06,23,00,25,14.20
2014,06,23,00,26,14.20
2014,06,23,00,27,14.20
2014,06,23,00,28,14.20
2014,06,23,00,29,14.10
2014,06,23,00,30,14.10
2014,06,23,00,31,14.10
2014,06,23,00,32,14.10
2014,06,23,00,33,14.10
2014,06,23,00,34,14.00
2014,06,23,00,35,14.00
2014,06,23,00,36,14.00
2014,06,23,00,37,14.00
2014,06,23,00,38,14.00
2014,06,23,00,39,13.90
2014,06,23,00,40,13.90
2014,06,23,00,41,13.90
2014,06,23,00,42,13.90
2014,06,23,00,43,13.90
2014,06,23,00,44,13.90
2014,06,23,00,45,13.80
2014,06,23,00,46,13.80
2014,06,23,00,47,13.80
2014,06,23,00,48,13.80
2014,06,23,00,49,13.80
2014,06,23,00,50,13.80
2014,06,23,00,51,13.80
2014,06,23,00,52,13.80
2014,06,23,00,53,13.70
2014,06,23,00,54,13.70
2014,06,23,00,55,13.70
2014,06,23,00,56,13.70
2014,06,23,00,57,13.70
2014,06,23,00,58,13.70
2014,06,23,00,59,13.70
2014,06,23,01,00,13.70
2014,06,23,01,01,13.70
2014,06,23,01,02,13.70
2014,06,23,01,03,13.70
2014,06,23,01,04,13.70
2014,06,23,01,05,13.70
2014,06,23,01,06,13.70
2014,06,23,01,07,13.70
2014,06,23,01,08,13.70
2014,06,23,01,09,13.70
2014,06,23,01,10,13.70
2014,06,23,01,11,13.70
2014,06,23,01,12,13.70
2014,06,23,01,13,13.70
2014,06,23,01,14,13.70
2014,06,23,01,15,13.70
2014,06,23,01,16,13.70
2014,06,23,01,17,13.60
2014,06,23,01,18,13.60
2014,06,23,01,19,13.60
2014,06,23,01,20,13.60
2014,06,23,01,21,13.60
2014,06,23,01,22,13.50
2014,06,23,01,23,13.50
2014,06,23,01,24,13.50
2014,06,23,01,25,13.40
2014,06,23,01,26,13.40
2014,06,23,01,27,13.30
2014,06,23,01,28,13.30
2014,06,23,01,29,13.30
2014,06,23,01,30,13.20
2014,06,23,01,31,13.20
2014,06,23,01,32,13.20
2014,06,23,01,33,13.10
2014,06,23,01,34,13.10
2014,06,23,01,35,13.10
2014,06,23,01,36,13.10
2014,06,23,01,37,13.00
2014,06,23,01,38,13.00
2014,06,23,01,39,13.00
2014,06,23,01,40,13.00
2014,06,23,01,41,13.00
2014,06,23,01,42,13.00
2014,06,23,01,43,13.00
2014,06,23,01,44,13.00
2014,06,23,01,45,13.00
2014,06,23,01,46,13.00
2014,06,23,01,47,13.00
2014,06,23,01,48,13.10
2014,06,23,01,49,13.10
2014,06,23,01,50,13.10
2014,06,23,01,51,13.20
2014,06,23,01,52,13.20
2014,06,23,01,53,13.20
2014,06,23,01,54,13.30
2014,06,23,01,55,13.30
2014,06,23,01,56,13.30
2014,06,23,01,57,13.30
2014,06,23,01,58,13.40
2014,06,23,01,59,13.40
2014,06,23,02,00,13.40
2014,06,23,02,01,13.40
2014,06,23,02,02,13.40
2014,06,23,02,03,13.40
2014,06,23,02,04,13.40
2014,06,23,02,05,13.40
2014,06,23,02,06,13.40
2014,06,23,02,07,13.40
2014,06,23,02,08,13.40
2014,06,23,02,09,13.40
2014,06,23,02,10,13.40
2014,06,23,02,11,13.40
2014,06,23,02,12,13.40
2014,06,23,02,13,13.50
2014,06,23,02,14,13.50
2014,06,23,02,15,13.50
2014,06,23,02,16,13.50
2014,06,23,02,17,13.50
2014,06,23,02,18,13.50
2014,06,23,02,19,13.50
2014,06,23,02,20,13.50
2014,06,23,02,21,13.50
2014,06,23,02,22,13.50
2014,06,23,02,23,13.50
2014,06,23,02,24,13.50
2014,06,23,02,25,13.50
2014,06,23,02,26,13.50
2014,06,23,02,27,13.50
2014,06,23,02,28,13.50
2014,06,23,02,29,13.50
2014,06,23,02,30,13.40
2014,06,23,02,31,13.40
2014,06,23,02,32,13.40
2014,06,23,02,33,13.40
2014,06,23,02,34,13.40
2014,06,23,02,35,13.40
2014,06,23,02,36,13.40
2014,06,23,02,37,13.40
2014,06,23,02,38,13.40
2014,06,23,02,39,13.40
2014,06,23,02,40,13.40
2014,06,23,02,41,13.40
2014,06,23,02,42,13.40
2014,06,23,02,43,13.40
2014,06,23,02,44,13.40
2014,06,23,02,45,13.40
2014,06,23,02,46,13.40
2014,06,23,02,47,13.40
2014,06,23,02,48,13.40
2014,06,23,02,49,13.50
2014,06,23,02,50,13.50
2014,06,23,02,51,13.50
2014,06,23,02,52,13.50
2014,06,23,02,53,13.50
2014,06,23,02,54,13.40
2014,06,23,02,55,13.40
2014,06,23,02,56,13.40
2014,06,23,02,57,13.40
2014,06,23,02,58,13.40
2014,06,23,02,59,13.40
2014,06,23,03,00,13.40
2014,06,23,03,01,13.40
2014,06,23,03,02,13.40
2014,06,23,03,03,13.40
2014,06,23,03,04,13.40
2014,06,23,03,05,13.40
2014,06,23,03,06,13.40
2014,06,23,03,07,13.40
2014,06,23,03,08,13.40
2014,06,23,03,09,13.50
2014,06,23,03,10,13.50
2014,06,23,03,11,13.50
2014,06,23,03,12,13.40
2014,06,23,03,13,13.40
2014,06,23,03,14,13.40
2014,06,23,03,15,13.40
2014,06,23,03,16,13.40
2014,06,23,03,17,13.40
2014,06,23,03,18,13.40
2014,06,23,03,19,13.40
2014,06,23,03,20,13.40
2014,06,23,03,21,13.40
2014,06,23,03,22,13.40
2014,06,23,03,23,13.30
2014,06,23,03,24,13.30
2014,06,23,03,25,13.30
2014,06,23,03,26,13.30
2014,06,23,03,27,13.30
2014,06,23,03,28,13.30
2014,06,23,03,29,13.30
2014,06,23,03,30,13.30
2014,06,23,03,31,13.30
2014,06,23,03,32,13.30
2014,06,23,03,33,13.30
2014,06,23,03,34,13.30
2014,06,23,03,35,13.30
2014,06,23,03,36,13.30
2014,06,23,03,37,13.20
2014,06,23,03,38,13.20
2014,06,23,03,39,13.20
2014,06,23,03,40,13.10
2014,06,23,03,41,13.10
2014,06,23,03,42,13.10
2014,06,23,03,43,13.00
2014,06,23,03,44,13.00
2014,06,23,03,45,13.00
2014,06,23,03,46,13.00
2014,06,23,03,47,12.90
2014,06,23,03,48,12.90
2014,06,23,03,49,12.90
2014,06,23,03,50,12.80
2014,06,23,03,51,12.80
2014,06,23,03,52,12.80
2014,06,23,03,53,12.80
2014,06,23,03,54,12.80
2014,06,23,03,55,12.80
2014,06,23,03,56,12.70
2014,06,23,03,57,12.70
2014,06,23,03,58,12.70
2014,06,23,03,59,12.60
2014,06,23,04,00,12.60
2014,06,23,04,01,12.60
2014,06,23,04,02,12.60
2014,06,23,04,03,12.60
2014,06,23,04,04,12.60
2014,06,23,04,05,12.60
2014,06,23,04,06,12.60
2014,06,23,04,07,12.60
2014,06,23,04,08,12.50
2014,06,23,04,09,12.50
2014,06,23,04,10,12.50
2014,06,23,04,11,12.50
2014,06,23,04,12,12.50
2014,06,23,04,13,12.50
2014,06,23,04,14,12.60
2014,06,23,04,15,12.60
2014,06,23,04,16,12.60
2014,06,23,04,17,12.60
2014,06,23,04,18,12.60
2014,06,23,04,19,12.60
2014,06,23,04,20,12.60
2014,06,23,04,21,12.60
2014,06,23,04,22,12.60
2014,06,23,04,23,12.60
2014,06,23,04,24,12.60
2014,06,23,04,25,12.60
2014,06,23,04,26,12.60
2014,06,23,04,27,12.60
2014,06,23,04,28,12.70
2014,06,23,04,29,12.70
2014,06,23,04,30,12.70
2014,06,23,04,31,12.70
2014,06,23,04,32,12.70
2014,06,23,04,33,12.70
2014,06,23,04,34,12.70
2014,06,23,04,35,12.70
2014,06,23,04,36,12.70
2014,06,23,04,37,12.70
2014,06,23,04,38,12.70
2014,06,23,04,39,12.70
2014,06,23,04,40,12.80
2014,06,23,04,41,12.80
2014,06,23,04,42,12.80
2014,06,23,04,43,12.80
2014,06,23,04,44,12.80
2014,06,23,04,45,12.80
2014,06,23,04,46,12.80
2014,06,23,04,47,12.80
2014,06,23,04,48,12.80
2014,06,23,04,49,12.80
2014,06,23,04,50,12.80
2014,06,23,04,51,12.80
2014,06,23,04,52,12.80
2014,06,23,04,53,12.80
2014,06,23,04,54,12.80
2014,06,23,04,55,12.90
2014,06,23,04,56,12.90
2014,06,23,04,57,12.90
2014,06,23,04,58,13.00
2014,06,23,04,59,13.00
2014,06,23,05,00,13.00
2014,06,23,05,01,13.10
2014,06,23,05,02,13.10
2014,06,23,05,03,13.10
2014,06,23,05,04,13.10
2014,06,23,05,05,13.20
2014,06,23,05,06,13.20
2014,06,23,05,07,13.20
2014,06,23,05,08,13.20
2014,06,23,05,09,13.20
2014,06,23,05,10,13.20
2014,06,23,05,11,13.20
2014,06,23,05,12,13.20
2014,06,23,05,13,13.20
2014,06,23,05,14,13.20
2014,06,23,05,15,13.10
2014,06,23,05,16,13.10
2014,06,23,05,17,13.10
2014,06,23,05,18,13.10
2014,06,23,05,19,13.10
2014,06,23,05,20,13.10
2014,06,23,05,21,13.10
2014,06,23,05,22,13.10
2014,06,23,05,23,13.10
2014,06,23,05,24,13.10
2014,06,23,05,25,13.10
2014,06,23,05,26,13.10
2014,06,23,05,27,13.10
2014,06,23,05,28,13.10
2014,06,23,05,29,13.10
2014,06,23,05,30,13.10
2014,06,23,05,31,13.10
2014,06,23,05,32,13.10
2014,06,23,05,33,13.10
2014,06,23,05,34,13.10
2014,06,23,05,35,13.10
2014,06,23,05,36,13.10
2014,06,23,05,37,13.10
2014,06,23,05,38,13.10
2014,06,23,05,39,13.10
2014,06,23,05,40,13.10
2014,06,23,05,41,13.10
2014,06,23,05,42,13.10
2014,06,23,05,43,13.10
2014,06,23,05,44,13.00
2014,06,23,05,45,13.00
2014,06,23,05,46,13.00
2014,06,23,05,47,13.00
2014,06,23,05,48,13.00
2014,06,23,05,49,13.00
2014,06,23,05,50,12.90
2014,06,23,05,51,12.90
2014,06,23,05,52,12.90
2014,06,23,05,53,12.90
2014,06,23,05,54,12.90
2014,06,23,05,55,12.90
2014,06,23,05,56,12.90
2014,06,23,05,57,12.90
2014,06,23,05,58,12.90
2014,06,23,05,59,12.90
2014,06,23,06,00,12.90
2014,06,23,06,01,12.90
2014,06,23,06,02,12.90
2014,06,23,06,03,12.90
2014,06,23,06,04,12.90
2014,06,23,06,05,12.90
2014,06,23,06,06,12.80
2014,06,23,06,07,12.80
2014,06,23,06,08,12.80
2014,06,23,06,09,12.80
2014,06,23,06,10,12.80
2014,06,23,06,11,12.80
2014,06,23,06,12,12.80
2014,06,23,06,13,12.90
2014,06,23,06,14,12.90
2014,06,23,06,15,12.90
2014,06,23,06,16,13.00
2014,06,23,06,17,13.00
2014,06,23,06,18,13.00
2014,06,23,06,19,13.10
2014,06,23,06,20,13.10
2014,06,23,06,21,13.20
2014,06,23,06,22,13.20
2014,06,23,06,23,13.30
2014,06,23,06,24,13.30
2014,06,23,06,25,13.30
2014,06,23,06,26,13.30
2014,06,23,06,27,13.40
2014,06,23,06,28,13.40
2014,06,23,06,29,13.50
2014,06,23,06,30,13.50
2014,06,23,06,31,13.50
2014,06,23,06,32,13.50
2014,06,23,06,33,13.60
2014,06,23,06,34,13.60
2014,06,23,06,35,13.60
2014,06,23,06,36,13.60
2014,06,23,06,37,13.60
2014,06,23,06,38,13.70
2014,06,23,06,39,13.70
2014,06,23,06,40,13.70
2014,06,23,06,41,13.70
2014,06,23,06,42,13.70
2014,06,23,06,43,13.70
2014,06,23,06,44,13.70
2014,06,23,06,45,13.70
2014,06,23,06,46,13.80
2014,06,23,06,47,13.80
2014,06,23,06,48,13.80
2014,06,23,06,49,13.80
2014,06,23,06,50,13.80
2014,06,23,06,51,13.90
2014,06,23,06,52,13.90
2014,06,23,06,53,13.90
2014,06,23,06,54,13.90
2014,06,23,06,55,13.90
2014,06,23,06,56,14.00
2014,06,23,06,57,14.00
2014,06,23,06,58,14.00
2014,06,23,06,59,14.10
2014,06,23,07,00,14.10
2014,06,23,07,01,14.20
2014,06,23,07,02,14.20
2014,06,23,07,03,14.20
2014,06,23,07,04,14.20
2014,06,23,07,05,14.30
2014,06,23,07,06,14.30
2014,06,23,07,07,14.30
2014,06,23,07,08,14.40
2014,06,23,07,09,14.40
2014,06,23,07,10,14.40
2014,06,23,07,11,14.50
2014,06,23,07,12,14.50
2014,06,23,07,13,14.60
2014,06,23,07,14,14.60
2014,06,23,07,15,14.70
2014,06,23,07,16,14.70
2014,06,23,07,17,14.80
2014,06,23,07,18,14.80
2014,06,23,07,19,14.80
2014,06,23,07,20,14.80
2014,06,23,07,21,14.80
2014,06,23,07,22,14.90
2014,06,23,07,23,14.90
2014,06,23,07,24,14.90
2014,06,23,07,25,14.90
2014,06,23,07,26,15.00
2014,06,23,07,27,15.00
2014,06,23,07,28,15.00
2014,06,23,07,29,15.00
2014,06,23,07,30,15.10
2014,06,23,07,31,15.10
2014,06,23,07,32,15.10
2014,06,23,07,33,15.20
2014,06,23,07,34,15.20
2014,06,23,07,35,15.20
2014,06,23,07,36,15.20
2014,06,23,07,37,15.30
2014,06,23,07,38,15.30
2014,06,23,07,39,15.30
2014,06,23,07,40,15.30
2014,06,23,07,41,15.30
2014,06,23,07,42,15.30
2014,06,23,07,43,15.40
2014,06,23,07,44,15.40
2014,06,23,07,45,15.50
2014,06,23,07,46,15.50
2014,06,23,07,47,15.50
2014,06,23,07,48,15.50
2014,06,23,07,49,15.60
2014,06,23,07,50,15.60
2014,06,23,07,51,15.60
2014,06,23,07,52,15.70
2014,06,23,07,53,15.70
2014,06,23,07,54,15.80
2014,06,23,07,55,15.80
2014,06,23,07,56,15.90
2014,06,23,07,57,15.90
2014,06,23,07,58,15.90
2014,06,23,07,59,15.90
2014,06,23,08,00,15.90
2014,06,23,08,01,16.00
2014,06,23,08,02,16.10
2014,06,23,08,03,16.10
2014,06,23,08,04,16.10
2014,06,23,08,05,16.20
2014,06,23,08,06,16.20
2014,06,23,08,07,16.30
2014,06,23,08,08,16.30
2014,06,23,08,09,16.30
2014,06,23,08,10,16.40
2014,06,23,08,11,16.40
2014,06,23,08,12,16.40
2014,06,23,08,13,16.40
2014,06,23,08,14,16.40
2014,06,23,08,15,16.40
2014,06,23,08,16,16.40
2014,06,23,08,17,16.40
2014,06,23,08,18,16.40
2014,06,23,08,19,16.40
2014,06,23,08,20,16.40
2014,06,23,08,21,16.40
2014,06,23,08,22,16.40
2014,06,23,08,23,16.30
2014,06,23,08,24,16.30
2014,06,23,08,25,16.30
2014,06,23,08,26,16.30
2014,06,23,08,27,16.30
2014,06,23,08,28,16.20
2014,06,23,08,29,16.20
2014,06,23,08,30,16.20
2014,06,23,08,31,16.20
2014,06,23,08,32,16.10
2014,06,23,08,33,16.10
2014,06,23,08,34,16.10
2014,06,23,08,35,16.10
2014,06,23,08,36,16.10
2014,06,23,08,37,16.20
2014,06,23,08,38,16.20
2014,06,23,08,39,16.20
2014,06,23,08,40,16.10
2014,06,23,08,41,16.10
2014,06,23,08,42,16.20
2014,06,23,08,43,16.20
2014,06,23,08,44,16.20
2014,06,23,08,45,16.20
2014,06,23,08,46,16.20
2014,06,23,08,47,16.20
2014,06,23,08,48,16.20
2014,06,23,08,49,16.20
2014,06,23,08,50,16.20
2014,06,23,08,51,16.20
2014,06,23,08,52,16.20
2014,06,23,08,53,16.20
2014,06,23,08,54,16.20
2014,06,23,08,55,16.20
2014,06,23,08,56,16.20
2014,06,23,08,57,16.20
2014,06,23,08,58,16.20
2014,06,23,08,59,16.30
2014,06,23,09,00,16.30
2014,06,23,09,01,16.30
2014,06,23,09,02,16.30
2014,06,23,09,03,16.30
2014,06,23,09,04,16.30
2014,06,23,09,05,16.30
2014,06,23,09,06,16.30
2014,06,23,09,07,16.30
2014,06,23,09,08,16.30
2014,06,23,09,09,16.40
2014,06,23,09,10,16.40
2014,06,23,09,11,16.40
2014,06,23,09,12,16.40
2014,06,23,09,13,16.40
2014,06,23,09,14,16.50
2014,06,23,09,15,16.60
2014,06,23,09,16,16.60
2014,06,23,09,17,16.70
2014,06,23,09,18,16.70
2014,06,23,09,19,16.70
2014,06,23,09,20,16.80
2014,06,23,09,21,16.80
2014,06,23,09,22,16.80
2014,06,23,09,23,16.90
2014,06,23,09,24,16.90
2014,06,23,09,25,17.00
2014,06,23,09,26,17.00
2014,06,23,09,27,17.10
2014,06,23,09,28,17.20
2014,06,23,09,29,17.20
2014,06,23,09,30,17.30
2014,06,23,09,31,17.30
2014,06,23,09,32,17.30
2014,06,23,09,33,17.30
2014,06,23,09,34,17.30
2014,06,23,09,35,17.40
2014,06,23,09,36,17.40
2014,06,23,09,37,17.40
2014,06,23,09,38,17.30
2014,06,23,09,39,17.30
2014,06,23,09,40,17.40
2014,06,23,09,41,17.40
2014,06,23,09,42,17.40
2014,06,23,09,43,17.40
2014,06,23,09,44,17.50
2014,06,23,09,45,17.60
2014,06,23,09,46,17.60
2014,06,23,09,47,17.70
2014,06,23,09,48,17.70
2014,06,23,09,49,17.70
2014,06,23,09,50,17.70
2014,06,23,09,51,17.80
2014,06,23,09,52,17.80
2014,06,23,09,53,17.70
2014,06,23,09,54,17.70
2014,06,23,09,55,17.70
2014,06,23,09,56,17.70
2014,06,23,09,57,17.70
2014,06,23,09,58,17.70
2014,06,23,09,59,17.70
2014,06,23,10,00,17.70
2014,06,23,10,01,17.70
2014,06,23,10,02,17.70
2014,06,23,10,03,17.70
2014,06,23,10,04,17.70
2014,06,23,10,05,17.70
2014,06,23,10,06,17.70
2014,06,23,10,07,17.70
2014,06,23,10,08,17.60
2014,06,23,10,09,17.60
2014,06,23,10,10,17.60
2014,06,23,10,11,17.50
2014,06,23,10,12,17.50
2014,06,23,10,13,17.50
2014,06,23,10,14,17.40
2014,06,23,10,15,17.40
2014,06,23,10,16,17.40
2014,06,23,10,17,17.40
2014,06,23,10,18,17.30
2014,06,23,10,19,17.30
2014,06,23,10,20,17.30
2014,06,23,10,21,17.30
2014,06,23,10,22,17.30
2014,06,23,10,23,17.30
2014,06,23,10,24,17.30
2014,06,23,10,25,17.30
2014,06,23,10,26,17.30
2014,06,23,10,27,17.30
2014,06,23,10,28,17.30
2014,06,23,10,29,17.30
2014,06,23,10,30,17.30
2014,06,23,10,31,17.20
2014,06,23,10,32,17.10
2014,06,23,10,33,17.00
2014,06,23,10,34,16.90
2014,06,23,10,35,16.90
2014,06,23,10,36,16.90
2014,06,23,10,37,16.80
2014,06,23,10,38,16.80
2014,06,23,10,39,16.80
2014,06,23,10,40,16.80
2014,06,23,10,41,16.80
2014,06,23,10,42,16.80
2014,06,23,10,43,16.80
2014,06,23,10,44,16.80
2014,06,23,10,45,16.80
2014,06,23,10,46,16.80
2014,06,23,10,47,16.90
2014,06,23,10,48,16.90
2014,06,23,10,49,16.90
2014,06,23,10,50,16.90
2014,06,23,10,51,16.90
2014,06,23,10,52,17.00
2014,06,23,10,53,17.00
2014,06,23,10,54,17.00
2014,06,23,10,55,17.00
2014,06,23,10,56,17.00
2014,06,23,10,57,17.10
2014,06,23,10,58,17.10
2014,06,23,10,59,17.10
2014,06,23,11,00,17.10
2014,06,23,11,01,17.10
2014,06,23,11,02,17.20
2014,06,23,11,03,17.20
2014,06,23,11,04,17.30
2014,06,23,11,05,17.30
2014,06,23,11,06,17.30
2014,06,23,11,07,17.40
2014,06,23,11,08,17.40
2014,06,23,11,09,17.50
2014,06,23,11,10,17.50
2014,06,23,11,11,17.60
2014,06,23,11,12,17.70
2014,06,23,11,13,17.70
2014,06,23,11,14,17.70
2014,06,23,11,15,17.80
2014,06,23,11,16,17.90
2014,06,23,11,17,17.90
2014,06,23,11,18,18.10
2014,06,23,11,19,18.20
2014,06,23,11,20,18.30
2014,06,23,11,21,18.40
2014,06,23,11,22,18.50
2014,06,23,11,23,18.60
2014,06,23,11,24,18.70
2014,06,23,11,25,18.80
2014,06,23,11,26,18.90
2014,06,23,11,27,18.90
2014,06,23,11,28,18.90
2014,06,23,11,29,18.90
2014,06,23,11,30,18.90
2014,06,23,11,31,19.00
2014,06,23,11,32,19.10
2014,06,23,11,33,19.10
2014,06,23,11,34,19.10
2014,06,23,11,35,19.10
2014,06,23,11,36,19.20
2014,06,23,11,37,19.20
2014,06,23,11,38,19.20
2014,06,23,11,39,19.30
2014,06,23,11,40,19.30
2014,06,23,11,41,19.30
2014,06,23,11,42,19.30
2014,06,23,11,43,19.30
2014,06,23,11,44,19.20
2014,06,23,11,45,19.20
2014,06,23,11,46,19.20
2014,06,23,11,47,19.20
2014,06,23,11,48,19.30
2014,06,23,11,49,19.30
2014,06,23,11,50,19.40
2014,06,23,11,51,19.50
2014,06,23,11,52,19.60
2014,06,23,11,53,19.70
2014,06,23,11,54,19.80
2014,06,23,11,55,19.80
2014,06,23,11,56,19.70
2014,06,23,11,57,19.70
2014,06,23,11,58,19.60
2014,06,23,11,59,19.50
2014,06,23,12,00,19.50
2014,06,23,12,01,19.50
2014,06,23,12,02,19.50
2014,06,23,12,03,19.50
2014,06,23,12,04,19.50
2014,06,23,12,05,19.50
2014,06,23,12,06,19.50
2014,06,23,12,07,19.50
2014,06,23,12,08,19.50
2014,06,23,12,09,19.50
2014,06,23,12,10,19.40
2014,06,23,12,11,19.40
2014,06,23,12,12,19.40
2014,06,23,12,13,19.40
2014,06,23,12,14,19.40
2014,06,23,12,15,19.20
2014,06,23,12,16,19.00
2014,06,23,12,17,18.80
2014,06,23,12,18,18.60
2014,06,23,12,19,18.50
2014,06,23,12,20,18.40
2014,06,23,12,21,18.30
2014,06,23,12,22,18.20
2014,06,23,12,23,18.20
2014,06,23,12,24,18.10
2014,06,23,12,25,18.00
2014,06,23,12,26,17.90
2014,06,23,12,27,17.90
2014,06,23,12,28,17.80
2014,06,23,12,29,17.80
2014,06,23,12,30,17.80
2014,06,23,12,31,17.80
2014,06,23,12,32,17.80
2014,06,23,12,33,17.80
2014,06,23,12,34,17.90
2014,06,23,12,35,17.90
2014,06,23,12,36,17.90
2014,06,23,12,37,17.90
2014,06,23,12,38,17.90
2014,06,23,12,39,18.00
2014,06,23,12,40,18.10
2014,06,23,12,41,18.10
2014,06,23,12,42,18.10
2014,06,23,12,43,18.10
2014,06,23,12,44,18.20
2014,06,23,12,45,18.30
2014,06,23,12,46,18.40
2014,06,23,12,47,18.50
2014,06,23,12,48,18.50
2014,06,23,12,49,18.60
2014,06,23,12,50,18.70
2014,06,23,12,51,18.80
2014,06,23,12,52,18.90
2014,06,23,12,53,18.90
2014,06,23,12,54,18.90
2014,06,23,12,55,19.10
2014,06,23,12,56,19.10
2014,06,23,12,57,19.10
2014,06,23,12,58,19.10
2014,06,23,12,59,19.10
2014,06,23,13,00,19.20
2014,06,23,13,01,19.20
2014,06,23,13,02,19.30
2014,06,23,13,03,19.30
2014,06,23,13,04,19.30
2014,06,23,13,05,19.30
2014,06,23,13,06,19.40
2014,06,23,13,07,19.40
2014,06,23,13,08,19.40
2014,06,23,13,09,19.50
2014,06,23,13,10,19.50
2014,06,23,13,11,19.50
2014,06,23,13,12,19.50
2014,06,23,13,13,19.50
2014,06,23,13,14,19.50
2014,06,23,13,15,19.60
2014,06,23,13,16,19.60
2014,06,23,13,17,19.60
2014,06,23,13,18,19.60
2014,06,23,13,19,19.70
2014,06,23,13,20,19.70
2014,06,23,13,21,19.80
2014,06,23,13,22,19.90
2014,06,23,13,23,19.90
2014,06,23,13,24,20.10
2014,06,23,13,25,20.20
2014,06,23,13,26,20.20
2014,06,23,13,27,20.20
2014,06,23,13,28,20.30
2014,06,23,13,29,20.40
2014,06,23,13,30,20.40
2014,06,23,13,31,20.50
2014,06,23,13,32,20.60
2014,06,23,13,33,20.60
2014,06,23,13,34,20.60
2014,06,23,13,35,20.60
2014,06,23,13,36,20.70
2014,06,23,13,37,20.70
2014,06,23,13,38,20.70
2014,06,23,13,39,20.80
2014,06,23,13,40,20.90
2014,06,23,13,41,21.00
2014,06,23,13,42,21.00
2014,06,23,13,43,21.10
2014,06,23,13,44,21.20
2014,06,23,13,45,21.30
2014,06,23,13,46,21.30
2014,06,23,13,47,21.40
2014,06,23,13,48,21.40
2014,06,23,13,49,21.50
2014,06,23,13,50,21.60
2014,06,23,13,51,21.60
2014,06,23,13,52,21.60
2014,06,23,13,53,21.70
2014,06,23,13,54,21.80
2014,06,23,13,55,21.80
2014,06,23,13,56,21.90
2014,06,23,13,57,21.90
2014,06,23,13,58,21.90
2014,06,23,13,59,21.90
2014,06,23,14,00,22.00
2014,06,23,14,01,22.10
2014,06,23,14,02,22.10
2014,06,23,14,03,22.10
2014,06,23,14,04,22.20
2014,06,23,14,05,22.20
2014,06,23,14,06,22.20
2014,06,23,14,07,22.20
2014,06,23,14,08,22.20
2014,06,23,14,09,22.20
2014,06,23,14,10,22.20
2014,06,23,14,11,22.20
2014,06,23,14,12,22.20
2014,06,23,14,13,22.20
2014,06,23,14,14,22.20
2014,06,23,14,15,22.20
2014,06,23,14,16,22.00
2014,06,23,14,17,22.00
2014,06,23,14,18,21.90
2014,06,23,14,19,21.90
2014,06,23,14,20,21.80
2014,06,23,14,21,21.80
2014,06,23,14,22,21.80
2014,06,23,14,23,21.80
2014,06,23,14,24,21.70
2014,06,23,14,25,21.70
2014,06,23,14,26,21.80
2014,06,23,14,27,21.80
2014,06,23,14,28,21.90
2014,06,23,14,29,21.90
2014,06,23,14,30,22.00
2014,06,23,14,31,22.00
2014,06,23,14,32,22.00
2014,06,23,14,33,22.00
2014,06,23,14,34,22.00
2014,06,23,14,35,22.00
2014,06,23,14,36,22.00
2014,06,23,14,37,22.00
2014,06,23,14,38,21.90
2014,06,23,14,39,22.00
2014,06,23,14,40,22.00
2014,06,23,14,41,22.00
2014,06,23,14,42,22.00
2014,06,23,14,43,22.10
2014,06,23,14,44,22.10
2014,06,23,14,45,22.10
2014,06,23,14,46,22.10
2014,06,23,14,47,22.10
2014,06,23,14,48,22.20
2014,06,23,14,49,22.20
2014,06,23,14,50,22.20
2014,06,23,14,51,22.20
2014,06,23,14,52,22.20
2014,06,23,14,53,22.20
2014,06,23,14,54,22.30
2014,06,23,14,55,22.30
2014,06,23,14,56,22.30
2014,06,23,14,57,22.30
2014,06,23,14,58,22.30
2014,06,23,14,59,22.30
2014,06,23,15,00,22.30
2014,06,23,15,01,22.40
2014,06,23,15,02,22.40
2014,06,23,15,03,22.40
2014,06,23,15,04,22.40
2014,06,23,15,05,22.40
2014,06,23,15,06,22.40
2014,06,23,15,07,22.40
2014,06,23,15,08,22.40
2014,06,23,15,09,22.40
2014,06,23,15,10,22.40
2014,06,23,15,11,22.40
2014,06,23,15,12,22.40
2014,06,23,15,13,22.40
2014,06,23,15,14,22.40
2014,06,23,15,15,22.40
2014,06,23,15,16,22.40
2014,06,23,15,17,22.40
2014,06,23,15,18,22.30
2014,06,23,15,19,22.30
2014,06,23,15,20,22.30
2014,06,23,15,21,22.30
2014,06,23,15,22,22.30
2014,06,23,15,23,22.30
2014,06,23,15,24,22.30
2014,06,23,15,25,22.20
2014,06,23,15,26,22.20
2014,06,23,15,27,22.20
2014,06,23,15,28,22.20
2014,06,23,15,29,22.20
2014,06,23,15,30,22.20
2014,06,23,15,31,22.20
2014,06,23,15,32,22.10
2014,06,23,15,33,22.10
2014,06,23,15,34,22.10
2014,06,23,15,35,22.00
2014,06,23,15,36,22.00
2014,06,23,15,37,22.00
2014,06,23,15,38,22.00
2014,06,23,15,39,21.90
2014,06,23,15,40,21.90
2014,06,23,15,41,21.90
2014,06,23,15,42,21.90
2014,06,23,15,43,21.90
2014,06,23,15,44,21.90
2014,06,23,15,45,21.90
2014,06,23,15,46,21.90
2014,06,23,15,47,21.90
2014,06,23,15,48,22.00
2014,06,23,15,49,22.00
2014,06,23,15,50,22.00
2014,06,23,15,51,22.00
2014,06,23,15,52,22.00
2014,06,23,15,53,22.00
2014,06,23,15,54,22.00
2014,06,23,15,55,22.10
2014,06,23,15,56,22.10
2014,06,23,15,57,22.10
2014,06,23,15,58,22.20
2014,06,23,15,59,22.20
2014,06,23,16,00,22.30
2014,06,23,16,01,22.40
2014,06,23,16,02,22.50
2014,06,23,16,03,22.60
2014,06,23,16,04,22.60
2014,06,23,16,05,22.60
2014,06,23,16,06,22.60
2014,06,23,16,07,22.60
2014,06,23,16,08,22.70
2014,06,23,16,09,22.70
2014,06,23,16,10,22.70
2014,06,23,16,11,22.80
2014,06,23,16,12,22.80
2014,06,23,16,13,22.90
2014,06,23,16,14,22.90
2014,06,23,16,15,22.90
2014,06,23,16,16,22.90
2014,06,23,16,17,22.90
2014,06,23,16,18,22.90
2014,06,23,16,19,22.90
2014,06,23,16,20,22.90
2014,06,23,16,21,22.90
2014,06,23,16,22,22.90
2014,06,23,16,23,22.80
2014,06,23,16,24,22.80
2014,06,23,16,25,22.80
2014,06,23,16,26,22.80
2014,06,23,16,27,22.80
2014,06,23,16,28,22.70
2014,06,23,16,29,22.70
2014,06,23,16,30,22.70
2014,06,23,16,31,22.70
2014,06,23,16,32,22.70
2014,06,23,16,33,22.70
2014,06,23,16,34,22.70
2014,06,23,16,35,22.60
2014,06,23,16,36,22.60
2014,06,23,16,37,22.60
2014,06,23,16,38,22.60
2014,06,23,16,39,22.60
2014,06,23,16,40,22.50
2014,06,23,16,41,22.50
2014,06,23,16,42,22.50
2014,06,23,16,43,22.50
2014,06,23,16,44,22.60
2014,06,23,16,45,22.60
2014,06,23,16,46,22.60
2014,06,23,16,47,22.50
2014,06,23,16,48,22.50
2014,06,23,16,49,22.40
2014,06,23,16,50,22.40
2014,06,23,16,51,22.40
2014,06,23,16,52,22.30
2014,06,23,16,53,22.30
2014,06,23,16,54,22.30
2014,06,23,16,55,22.30
2014,06,23,16,56,22.30
2014,06,23,16,57,22.30
2014,06,23,16,58,22.30
2014,06,23,16,59,22.30
2014,06,23,17,00,22.20
2014,06,23,17,01,22.20
2014,06,23,17,02,22.10
2014,06,23,17,03,22.10
2014,06,23,17,04,22.00
2014,06,23,17,05,22.00
2014,06,23,17,06,22.00
2014,06,23,17,07,21.90
2014,06,23,17,08,21.90
2014,06,23,17,09,21.80
2014,06,23,17,10,21.80
2014,06,23,17,11,21.70
2014,06,23,17,12,21.70
2014,06,23,17,13,21.70
2014,06,23,17,14,21.60
2014,06,23,17,15,21.60
2014,06,23,17,16,21.60
2014,06,23,17,17,21.60
2014,06,23,17,18,21.60
2014,06,23,17,19,21.60